West Point, VA

1:21 AM EST on February 10, 2016 (GMT -0500)
West Point

Weather History for KFYJ - January, 2012

Change the Weather History Date:

Saturday, January 14, 2012

  Actual Average (KRIC) Record (KRIC)
Temperature  
Mean Temperature 36 °F 38 °F  
Max Temperature 41 °F 47 °F 78 °F (1932)
Min Temperature 30 °F 28 °F -1 °F (1912)
Degree Days  
Heating Degree Days 30 27  
Month to date heating degree days 378  
Since 1 July heating degree days 1797  
Cooling Degree Days 0 0  
Month to date cooling degree days 0  
Year to date cooling degree days 0  
Moisture  
Dew Point 23 °F    
Average Humidity 62    
Maximum Humidity 86    
Minimum Humidity 45    
Precipitation  
Precipitation 0.00 in 0.10 in 1.89 in (2005)
Month to date precipitation 1.37  
Year to date precipitation 1.37  
Snow  
Snow 0.00 in 0.20 in 5.70 in (1982)
Month to date snowfall 1.5  
Since 1 July snowfall 3.8  
Snow Depth -    
Sea Level Pressure  
Sea Level Pressure 30.11 in    
Wind  
Wind Speed 6 mph (West)    
Max Wind Speed 15 mph    
Max Gust Speed 20 mph    
Visibility 10 miles    
Events      
T = Trace of Precipitation, MM = Missing Value Source: NWS Daily Summary

Daily Weather History Graph

Daily Weather History Graph

Search for Another Location

Airport or City:

Trip Planner

Search our weather history database for the weather conditions in past years. The results will help you decide how hot, cold, wet, or windy it might be!

Date:

Astronomy

Jan. 14, 2012 Rise Set
Actual Time 7:21 AM EST 5:11 PM EST
Civil Twilight 6:52 AM EST 5:39 PM EST
Nautical Twilight 6:20 AM EST 6:12 PM EST
Astronomical Twilight 5:48 AM EST 6:43 PM EST
Moon 11:20 PM EST (1/14) 10:13 AM EST (1/14)
Length of Visible Light 10h 47m
Length of Day
9h 50m
Waning Gibbous, 69% of the Moon is Illuminated
Jan 14
Waning Gibbous
Jan 16
Last Quarter
Jan 23
New
Jan 30
First Quarter
Feb 7
Full

Hourly Weather History & Observations

Time (EST) Temp. Windchill Dew Point Humidity Pressure Visibility Wind Dir Wind Speed Gust Speed Precip Events Conditions
12:15 AM 32.0 °F 25.6 °F 23.0 °F 69% 30.01 in 10.0 mi West 6.9 mph - N/A   Clear
12:35 AM 32.0 °F 25.6 °F 23.0 °F 69% 30.01 in 10.0 mi West 6.9 mph - N/A   Clear
12:55 AM 32.0 °F 26.4 °F 21.2 °F 64% 30.01 in 10.0 mi West 5.8 mph - N/A   Clear
1:15 AM 32.0 °F 26.4 °F 23.0 °F 69% 30.01 in 10.0 mi WSW 5.8 mph - N/A   Clear
1:35 AM 32.0 °F 27.5 °F 23.0 °F 69% 30.02 in 10.0 mi WSW 4.6 mph - N/A   Clear
1:55 AM 32.0 °F 26.4 °F 23.0 °F 69% 30.03 in 10.0 mi West 5.8 mph - N/A   Clear
2:15 AM 32.0 °F 25.6 °F 23.0 °F 69% 30.04 in 10.0 mi West 6.9 mph - N/A   Clear
2:35 AM 32.0 °F 25.6 °F 23.0 °F 69% 30.04 in 10.0 mi West 6.9 mph - N/A   Clear
2:55 AM 32.0 °F 24.8 °F 21.2 °F 64% 30.04 in 10.0 mi West 8.1 mph - N/A   Clear
3:15 AM 32.0 °F 25.6 °F 21.2 °F 64% 30.06 in 10.0 mi West 6.9 mph - N/A   Clear
3:35 AM 30.2 °F - 23.0 °F 75% 30.06 in 10.0 mi Calm Calm - N/A   Clear
3:55 AM 30.2 °F 25.4 °F 23.0 °F 75% 30.06 in 10.0 mi West 4.6 mph - N/A   Clear
4:15 AM 30.2 °F 24.3 °F 23.0 °F 75% 30.06 in 10.0 mi West 5.8 mph - N/A   Clear
4:35 AM 30.2 °F 22.6 °F 23.0 °F 75% 30.08 in 10.0 mi West 8.1 mph - N/A   Clear
4:55 AM 30.2 °F 22.6 °F 23.0 °F 75% 30.08 in 10.0 mi West 8.1 mph - N/A   Clear
5:15 AM 30.2 °F 23.4 °F 23.0 °F 75% 30.09 in 10.0 mi West 6.9 mph - N/A   Clear
5:35 AM 30.2 °F 24.3 °F 23.0 °F 75% 30.09 in 10.0 mi West 5.8 mph - N/A   Clear
5:55 AM 30.2 °F 25.4 °F 21.2 °F 69% 30.10 in 10.0 mi West 4.6 mph - N/A   Clear
6:15 AM 30.2 °F 24.3 °F 21.2 °F 69% 30.11 in 10.0 mi West 5.8 mph - N/A   Clear
6:35 AM 30.2 °F 22.6 °F 21.2 °F 69% 30.11 in 10.0 mi West 8.1 mph - N/A   Clear
7:15 AM 30.2 °F 23.4 °F 21.2 °F 69% 30.13 in 10.0 mi West 6.9 mph - N/A   Clear
7:35 AM 30.2 °F 24.3 °F 21.2 °F 69% 30.13 in 10.0 mi West 5.8 mph - N/A   Clear
7:55 AM 30.2 °F 23.4 °F 21.2 °F 69% 30.14 in 10.0 mi WSW 6.9 mph - N/A   Clear
8:55 AM 32.0 °F 24.8 °F 23.0 °F 69% 30.16 in 10.0 mi West 8.1 mph - N/A   Clear
9:15 AM 32.0 °F 24.8 °F 23.0 °F 69% 30.17 in 10.0 mi West 8.1 mph - N/A   Clear
9:35 AM 33.8 °F 26.4 °F 23.0 °F 65% 30.18 in 10.0 mi West 9.2 mph - N/A   Clear
9:55 AM 35.6 °F 27.5 °F 23.0 °F 60% 30.17 in 10.0 mi West 11.5 mph 16.1 mph N/A   Clear
10:15 AM 35.6 °F 27.5 °F 21.2 °F 56% 30.17 in 10.0 mi WNW 11.5 mph 18.4 mph N/A   Clear
10:35 AM 35.6 °F 27.5 °F 21.2 °F 56% 30.17 in 10.0 mi West 11.5 mph 19.6 mph N/A   Clear
10:55 AM 37.4 °F 30.8 °F 21.2 °F 52% 30.17 in 10.0 mi West 9.2 mph - N/A   Clear
11:15 AM 37.4 °F 28.5 °F 21.2 °F 52% 30.17 in 10.0 mi West 15.0 mph 18.4 mph N/A   Clear
11:35 AM 37.4 °F 29.3 °F 21.2 °F 52% 30.15 in 10.0 mi West 12.7 mph - N/A   Clear
11:55 AM 37.4 °F 29.8 °F 21.2 °F 52% 30.14 in 10.0 mi West 11.5 mph - N/A   Clear
12:15 PM 39.2 °F 33.0 °F 21.2 °F 49% 30.13 in 10.0 mi WNW 9.2 mph - N/A   Clear
12:35 PM 39.2 °F 33.6 °F 21.2 °F 49% 30.12 in 10.0 mi West 8.1 mph 16.1 mph N/A   Clear
12:55 PM 39.2 °F 33.6 °F 21.2 °F 49% 30.11 in 10.0 mi West 8.1 mph - N/A   Clear
1:15 PM 39.2 °F 34.2 °F 21.2 °F 49% 30.10 in 10.0 mi West 6.9 mph - N/A   Clear
1:35 PM 41.0 °F 36.4 °F 21.2 °F 45% 30.09 in 10.0 mi WSW 6.9 mph - N/A   Clear
1:55 PM 41.0 °F 35.8 °F 21.2 °F 45% 30.08 in 10.0 mi West 8.1 mph - N/A   Clear
2:15 PM 41.0 °F 35.8 °F 21.2 °F 45% 30.08 in 10.0 mi WSW 8.1 mph - N/A   Clear
2:35 PM 41.0 °F 36.4 °F 21.2 °F 45% 30.08 in 10.0 mi West 6.9 mph - N/A   Clear
2:55 PM 41.0 °F 35.2 °F 21.2 °F 45% 30.08 in 10.0 mi West 9.2 mph - N/A   Clear
3:15 PM 41.0 °F 35.8 °F 21.2 °F 45% 30.08 in 10.0 mi West 8.1 mph - N/A   Clear
3:35 PM 41.0 °F 35.8 °F 21.2 °F 45% 30.09 in 10.0 mi West 8.1 mph - N/A   Clear
3:55 PM 41.0 °F 33.9 °F 21.2 °F 45% 30.09 in 10.0 mi West 12.7 mph - N/A   Clear
4:15 PM 41.0 °F 35.8 °F 21.2 °F 45% 30.10 in 10.0 mi West 8.1 mph - N/A   Clear
4:35 PM 39.2 °F 34.2 °F 21.2 °F 49% 30.10 in 10.0 mi West 6.9 mph - N/A   Clear
4:55 PM 39.2 °F 37.0 °F 23.0 °F 52% 30.10 in 10.0 mi WNW 3.5 mph - N/A   Mostly Cloudy
5:15 PM 39.2 °F 35.9 °F 23.0 °F 52% 30.11 in 10.0 mi West 4.6 mph - N/A   Overcast
5:35 PM 39.2 °F 37.0 °F 23.0 °F 52% 30.12 in 10.0 mi WNW 3.5 mph - N/A   Overcast
5:55 PM 37.4 °F - 23.0 °F 56% 30.13 in 10.0 mi Calm Calm - N/A   Overcast
6:15 PM 37.4 °F - 23.0 °F 56% 30.14 in 10.0 mi Calm Calm - N/A   Overcast
6:35 PM 37.4 °F - 23.0 °F 56% 30.14 in 10.0 mi Calm Calm - N/A   Overcast
6:55 PM 35.6 °F - 28.4 °F 75% 30.14 in 10.0 mi Calm Calm - N/A   Mostly Cloudy
7:15 PM 35.6 °F - 26.6 °F 70% 30.14 in 10.0 mi Calm Calm - N/A   Overcast
7:35 PM 33.8 °F - 28.4 °F 81% 30.14 in 10.0 mi Calm Calm - N/A   Overcast
7:55 PM 33.8 °F - 26.6 °F 75% 30.14 in 10.0 mi Calm Calm - N/A   Scattered Clouds
8:15 PM 33.8 °F - 26.6 °F 75% 30.15 in 10.0 mi Calm Calm - N/A   Clear
8:35 PM 32.0 °F 28.7 °F 24.8 °F 75% 30.15 in 10.0 mi ENE 3.5 mph - N/A   Clear
8:55 PM 30.2 °F - 26.6 °F 86% 30.15 in 10.0 mi Calm Calm - N/A   Clear
9:15 PM 30.2 °F 26.7 °F 26.6 °F 86% 30.15 in 10.0 mi ENE 3.5 mph - N/A   Clear
9:55 PM 30.2 °F - 24.8 °F 80% 30.16 in 10.0 mi Calm Calm - N/A   Clear
10:15 PM 28.4 °F - 26.6 °F 93% 30.15 in 10.0 mi Calm Calm - N/A   Clear
10:35 PM 28.4 °F - 24.8 °F 86% 30.16 in 10.0 mi Calm Calm - N/A   Clear
10:55 PM 26.6 °F - 24.8 °F 93% 30.16 in 10.0 mi Calm Calm - N/A   Clear
11:15 PM 28.4 °F - 24.8 °F 86% 30.16 in 10.0 mi Calm Calm - N/A   Clear
11:35 PM 28.4 °F 20.4 °F 26.6 °F 93% 30.17 in 10.0 mi NNW 8.1 mph - N/A   Clear
11:55 PM 28.4 °F 24.6 °F 26.6 °F 93% 30.16 in 10.0 mi North 3.5 mph - N/A   Clear